User: anonymous   Login
Location: Unspecified
(0.0000°N, 0.0000°E)
Time: 21:20:43
(UTC+00:00)
Language:

Tancredo 1 - Orbit

View from above orbital plane
View from above orbital plane
View from above satellite
View from above satellite

Ground track
Ground track

The orbit data is extracted from the following two-line orbital elements,

1 41931U 98067KT  17141.49511235 +.00047069 +00000-0 +47155-3 0  9993
2 41931 051.6364 166.3240 0003401 150.4558 209.6630 15.65051092019418
Epoch (UTC): 21 May 2017 11:52:57
Eccentricity: 0.0003401
inclination: 51.6364°
perigee height: 371 km
apogee height: 375 km
right ascension of ascending node: 166.3240°
argument of perigee: 150.4558°
revolutions per day: 15.65051092
mean anomaly at epoch: 209.6630°
orbit number at epoch: 1941

The dashed part of the orbit path shows where the satellite is in the earth's shadow,  

DLR